Regional Weather Roundup
Issued by NWS Goodland, KS

Home | Current Version | Previous Version | Text Only | Print | Product List | Glossary Off
Versions: 1 2 3 4 5 6 7 8 9 10 11 12 13 14 15 16 17 18 19 20 21 22 23 24 25 26 27 28 29 30 31 32 33 34 35 36 37 38 39 40 41 42 43 44 45 46 47 48 49 50

947
ASUS43 KGLD 040008
RWRGLD

GOODLAND FORECAST AREA HOURLY WEATHER ROUNDUP
NATIONAL WEATHER SERVICE GOODLAND KS
500 PM MST SAT DEC 03 2016

...OFFICIAL OBSERVATIONS...

CITY           SKY/WX    TMP DP  RH WIND       PRES   REMARKS
GOODLAND KS    CLEAR     30  24  78 S7        29.97S
HILL CITY KS   CLOUDY    33  32  96 CALM      30.06S FOG
IMPERIAL NEB   CLOUDY    39  26  59 S7        29.97R
MCCOOK NEB     CLOUDY    35  31  85 SE7       30.02R
AKRON CO       CLOUDY    29  17  61 W9        29.97R
BURLINGTON CO  CLEAR     33  22  63 S9        29.96S
LIMON CO       CLOUDY    32  14  47 N8        29.97R
$$

...UNOFFICIAL OBSERVATIONS...

CITY           SKY/WX    TMP DP  RH WIND       PRES   REMARKS
COLBY KS       CLOUDY    32  32 100 SE6       30.01S
LENORA KS        N/A     32  32 100 MISG        N/A
NORTON KS      CLOUDY    34  30  86 SE7       30.03
SHARON SPRINGS   N/A     37  29  72 CALM        N/A
TRENTON NEB      N/A     32  32 100 S6          N/A
KIT CARSON CO    N/A     34  25  68 CALM        N/A
YUMA CO        CLOUDY    36  18  48 W5        29.96S
$$




USA.gov is the U.S. government's official web portal to all federal, state and local government web resources and services.